DF5HRN-13 Weather Reports


time (UTC)temp
C
wind
direction
speed
KPH
gust
KPH
rain 1hr
cm
rain 24hr
cm
rain mn
cm
humidity
%
barometer
mb
20260505111505 20 135 6.4 16.1 0.00 0.00 0.00 42 1017.0
20260505101505 22 158 1.6 16.1 0.00 0.00 0.00 42 1018.0
20260505100005 21 158 6.4 16.1 0.00 0.00 0.00 42 1018.0
20260505094505 22 158 3.2 16.1 0.00 0.00 0.00 42 1018.0
20260505093005 22 180 4.8 16.1 0.00 0.00 0.00 41 1018.0
20260505091505 21 203 3.2 16.1 0.00 0.00 0.00 41 1018.0
20260505090005 22 135 0.0 16.1 0.00 0.00 0.00 41 1018.0
20260505084505 22 135 0.0 16.1 0.00 0.00 0.00 41 1018.0
20260505083005 22 158 0.0 16.1 0.00 0.00 0.00 41 1018.0
20260505081505 21 158 0.0 16.1 0.00 0.00 0.00 41 1018.0
20260505080005 20 135 0.0 16.1 0.00 0.00 0.00 41 1018.0
20260505074505 20 68 0.0 16.1 0.00 0.00 0.00 41 1018.0
20260505073005 19 23 0.0 16.1 0.00 0.00 0.00 41 1019.0
20260505071505 18 23 0.0 16.1 0.00 0.00 0.00 41 1019.0
20260505070005 18 0 0.0 16.1 0.00 0.00 0.00 41 1019.0
20260505064505 17 0 0.0 16.1 0.00 0.00 0.00 41 1019.0
20260505063005 17 315 0.0 16.1 0.00 0.00 0.00 41 1019.0
20260505061505 16 315 0.0 16.1 0.00 0.00 0.00 41 1019.0
20260505060005 15 315 0.0 16.1 0.00 0.00 0.00 41 1019.0
20260505054505 15 315 0.0 16.1 0.00 0.00 0.00 41 1019.0
20260505053005 14 203 0.0 16.1 0.00 0.00 0.00 41 1019.0
20260505051505 13 203 0.0 16.1 0.00 0.00 0.00 41 1019.0
20260505041505 12 203 0.0 16.1 0.00 0.00 0.00 41 1019.0
20260505040005 11 203 0.0 16.1 0.00 0.00 0.00 40 1019.0
20260505034505 11 203 0.0 16.1 0.00 0.00 0.00 40 1019.0
20260505033005 12 203 0.0 16.1 0.00 0.00 0.00 40 1019.0
20260505031505 12 203 0.0 16.1 0.00 0.00 0.00 40 1019.0
20260505030005 12 203 0.0 16.1 0.00 0.00 0.00 40 1019.0
20260505024505 12 203 0.0 16.1 0.00 0.00 0.00 40 1019.0
20260505023005 13 203 0.0 16.1 0.00 0.00 0.00 40 1019.0
20260505021505 13 293 0.0 16.1 0.00 0.00 0.00 40 1020.0
20260505020005 13 293 0.0 16.1 0.00 0.00 0.00 40 1020.0
20260505014505 13 315 0.0 16.1 0.00 0.00 0.00 40 1020.0
20260505013005 13 315 0.0 16.1 0.00 0.00 0.00 40 1020.0
20260505011505 13 315 0.0 16.1 0.00 0.00 0.00 40 1020.0
20260505010005 14 315 0.0 16.1 0.00 0.00 0.00 40 1020.0
20260505004505 14 315 0.0 16.1 0.00 0.00 0.00 40 1020.0
20260505003005 15 315 0.0 16.1 0.00 0.00 0.00 40 1020.0
20260505001505 15 180 1.6 16.1 0.00 0.00 0.00 40 1020.0
20260505000005 15 180 0.0 16.1 0.00 0.00 0.00 40 1021.0
20260504234505 15 180 0.0 16.1 0.00 0.00 0.00 40 1020.0
20260504233005 15 248 0.0 16.1 0.00 0.00 0.00 40 1021.0
20260504231505 15 248 0.0 16.1 0.00 0.00 0.00 40 1021.0
20260504230005 15 248 0.0 16.1 0.00 0.00 0.00 40 1021.0
20260504224505 15 248 0.0 16.1 0.00 0.00 0.00 40 1021.0
20260504223005 16 225 0.0 16.1 0.00 0.00 0.00 40 1021.0
20260504221505 15 248 0.0 16.1 0.00 0.00 0.00 40 1021.0
20260504220005 16 248 0.0 16.1 0.00 0.00 0.00 39 1021.0
20260504204505 18 45 0.0 16.1 0.00 0.00 0.00 39 1021.0
20260504203005 18 45 0.0 16.1 0.00 0.00 0.00 39 1021.0
20260504201505 18 68 0.0 16.1 0.00 0.00 0.00 39 1021.0
20260504200005 18 68 0.0 16.1 0.00 0.00 0.00 39 1022.0
20260504194505 18 45 0.0 16.1 0.00 0.00 0.00 39 1022.0
20260504193005 18 68 0.0 16.1 0.00 0.00 0.00 37 1022.0
20260504191505 19 68 0.0 16.1 0.00 0.00 0.00 39 1022.0
20260504190005 19 68 0.0 16.1 0.00 0.00 0.00 40 1022.0
20260504184505 20 68 0.0 16.1 0.00 0.00 0.00 39 1021.0
20260504183005 20 0 0.0 16.1 0.00 0.00 0.00 39 1021.0
20260504181505 20 315 3.2 16.1 0.00 0.00 0.00 39 1021.0
20260504180005 20 270 0.0 16.1 0.00 0.00 0.00 39 1021.0
20260504174505 20 270 0.0 16.1 0.00 0.00 0.00 38 1021.0
20260504173005 21 315 0.0 16.1 0.00 0.00 0.00 38 1021.0
20260504171506 21 23 0.0 16.1 0.00 0.00 0.00 38 1021.0